Simultaneous Nadir Overpasses (SNOs) Predictions

Prediction of SNOs between GOES-15 and NOAA-20 Satellite Orbit:

Table of predicted SNOs for the next 14.0 days since TLE Epoch: 10/10/2020
Index Date Time (GOES-15) GOES-15 Lat,Lon NOAA-20 Lat,Lon Distance(km) Time Diff (sec)
1 10/10/2020 10:04:43 -0.13,-128.43 0.31,-130.32 216.49 80
2 10/11/2020 09:48:40 -0.14,-128.42 -0.73,-125.80 298.81 80
3 10/12/2020 22:10:37 0.14,-128.40 -0.46,-131.11 309.03 80
4 10/13/2020 21:49:12 0.14,-128.39 0.52,-126.58 205.86 80
5 10/15/2020 10:11:02 -0.14,-128.39 0.62,-131.86 395.25 80
6 10/16/2020 09:54:57 -0.14,-128.38 -0.36,-127.32 119.64 80
7 10/17/2020 22:16:54 0.13,-128.34 -0.83,-132.63 488.50 80
8 10/18/2020 21:55:30 0.14,-128.33 0.16,-128.10 25.94 80
9 10/21/2020 10:01:15 -0.13,-128.30 0.00,-128.84 62.77 80
10 10/22/2020 09:39:51 -0.14,-128.28 -1.04,-124.32 451.13 80
11 10/23/2020 22:04:28 0.13,-128.24 -0.19,-129.62 158.00 80
